Time,TemperatureF,DewpointF,PressureIn,WindDirection,WindDirectionDegrees,WindSpeedMPH,WindSpeedGustMPH,Humidity,HourlyPrecipIn,Conditions,Clouds,dailyrainin,SoftwareType,DateUTC
2013-02-14 08:50:00,35.8,19.4,30.20,ENE,71,0.0,2.0,51,0.00,,,0.00,Wunderground v.1.15,2013-02-14 15:50:00,
2013-02-14 08:55:00,36.1,19.2,30.21,East,81,0.0,2.0,50,0.00,,,0.00,Wunderground v.1.15,2013-02-14 15:55:00,
2013-02-14 09:00:00,36.4,19.5,30.20,East,82,0.0,0.0,50,0.00,,,0.00,Wunderground v.1.15,2013-02-14 16:00:00,
2013-02-14 09:05:00,37.3,19.9,30.20,East,82,0.0,0.0,49,0.00,,,0.00,Wunderground v.1.15,2013-02-14 16:05:00,
2013-02-14 09:14:00,38.8,20.3,30.20,East,82,0.0,0.0,47,0.00,,,0.00,Wunderground v.1.15,2013-02-14 16:14:00,
2013-02-14 09:19:00,39.6,20.5,30.19,East,82,0.0,0.0,46,0.00,,,0.00,Wunderground v.1.15,2013-02-14 16:19:00,
2013-02-14 09:24:00,39.8,19.6,30.19,East,88,0.0,0.0,44,0.00,,,0.00,Wunderground v.1.15,2013-02-14 16:24:00,
2013-02-14 09:30:00,39.4,19.8,30.19,East,88,0.0,0.0,45,0.00,,,0.00,Wunderground v.1.15,2013-02-14 16:30:00,
2013-02-14 09:35:00,39.7,20.1,30.19,NE,41,0.0,0.0,45,0.00,,,0.00,Wunderground v.1.15,2013-02-14 16:35:00,
2013-02-14 09:40:00,40.2,20.5,30.19,NE,41,0.0,0.0,45,0.00,,,0.00,Wunderground v.1.15,2013-02-14 16:40:00,
2013-02-14 09:45:00,40.9,20.1,30.19,NE,40,0.0,0.0,43,0.00,,,0.00,Wunderground v.1.15,2013-02-14 16:45:00,
2013-02-14 09:50:00,41.5,20.6,30.19,NE,51,0.0,3.0,43,0.00,,,0.00,Wunderground v.1.15,2013-02-14 16:50:00,
2013-02-14 09:55:00,41.9,19.9,30.19,WNW,299,1.0,5.0,41,0.00,,,0.00,Wunderground v.1.15,2013-02-14 16:55:00,
2013-02-14 10:00:00,42.7,21.2,30.19,North,360,3.0,4.0,42,0.00,,,0.00,Wunderground v.1.15,2013-02-14 17:00:00,
2013-02-14 10:05:00,43.5,20.7,30.19,North,349,5.0,5.0,40,0.00,,,0.00,Wunderground v.1.15,2013-02-14 17:05:00,
2013-02-14 10:15:00,44.3,21.5,30.18,NW,318,5.0,7.0,40,0.00,,,0.00,Wunderground v.1.15,2013-02-14 17:15:00,
2013-02-14 10:20:00,45.2,21.7,30.18,NNW,345,4.0,4.0,39,0.00,,,0.00,Wunderground v.1.15,2013-02-14 17:20:00,
2013-02-14 10:30:00,45.6,21.4,30.18,NW,317,5.0,11.0,38,0.00,,,0.00,Wunderground v.1.15,2013-02-14 17:30:00,
2013-02-14 10:35:00,45.6,21.4,30.18,NNW,340,6.0,11.0,38,0.00,,,0.00,Wunderground v.1.15,2013-02-14 17:35:00,
2013-02-14 10:40:00,46.1,21.9,30.18,NNW,345,5.0,6.0,38,0.00,,,0.00,Wunderground v.1.15,2013-02-14 17:40:00,
2013-02-14 10:45:00,46.4,20.9,30.18,NNW,327,4.0,6.0,36,0.00,,,0.00,Wunderground v.1.15,2013-02-14 17:45:00,
2013-02-14 10:50:00,46.3,20.1,30.18,NNW,329,6.0,8.0,35,0.00,,,0.00,Wunderground v.1.15,2013-02-14 17:50:00,
2013-02-14 10:55:00,46.6,20.4,30.17,NW,324,6.0,8.0,35,0.00,,,0.00,Wunderground v.1.15,2013-02-14 17:55:00,
2013-02-14 11:00:00,46.9,20.6,30.17,NNW,331,6.0,6.0,35,0.00,,,0.00,Wunderground v.1.15,2013-02-14 18:00:00,
2013-02-14 11:05:00,47.2,19.5,30.16,North,360,7.0,8.0,33,0.00,,,0.00,Wunderground v.1.15,2013-02-14 18:05:00,
2013-02-14 11:15:00,47.0,20.0,30.16,NW,304,8.0,16.0,34,0.00,,,0.00,Wunderground v.1.15,2013-02-14 18:15:00,
2013-02-14 11:20:00,46.5,19.6,30.16,NW,318,8.0,8.0,34,0.00,,,0.00,Wunderground v.1.15,2013-02-14 18:20:00,
2013-02-14 11:25:00,47.0,19.3,30.16,NNW,335,8.0,10.0,33,0.00,,,0.00,Wunderground v.1.15,2013-02-14 18:25:00,
2013-02-14 11:30:00,47.1,18.7,30.16,North,351,9.0,12.0,32,0.00,,,0.00,Wunderground v.1.15,2013-02-14 18:30:00,
2013-02-14 11:40:00,47.3,19.6,30.15,NW,321,9.0,9.0,33,0.00,,,0.00,Wunderground v.1.15,2013-02-14 18:40:00,
2013-02-14 11:45:00,47.7,20.0,30.15,NNW,342,8.0,9.0,33,0.00,,,0.00,Wunderground v.1.15,2013-02-14 18:45:00,
2013-02-14 11:50:00,48.0,19.5,30.15,North,350,8.0,11.0,32,0.00,,,0.00,Wunderground v.1.15,2013-02-14 18:50:00,
2013-02-14 11:55:00,47.9,19.4,30.14,NNW,338,9.0,11.0,32,0.00,,,0.00,Wunderground v.1.15,2013-02-14 18:55:00,
2013-02-14 12:00:00,48.2,19.7,30.13,NNW,331,8.0,8.0,32,0.00,,,0.00,Wunderground v.1.15,2013-02-14 19:00:00,
2013-02-14 12:09:00,48.7,19.4,30.12,NW,323,8.0,8.0,31,0.00,,,0.00,Wunderground v.1.15,2013-02-14 19:09:00,
2013-02-14 12:14:00,49.0,20.4,30.12,NNE,13,6.0,8.0,32,0.00,,,0.00,Wunderground v.1.15,2013-02-14 19:14:00,
2013-02-14 12:20:00,49.8,19.6,30.11,NW,308,5.0,11.0,30,0.00,,,0.00,Wunderground v.1.15,2013-02-14 19:20:00,
2013-02-14 12:25:00,49.6,20.2,30.11,WNW,297,4.0,11.0,31,0.00,,,0.00,Wunderground v.1.15,2013-02-14 19:25:00,
2013-02-14 12:30:00,49.5,19.3,30.11,NW,317,4.0,4.0,30,0.00,,,0.00,Wunderground v.1.15,2013-02-14 19:30:00,
2013-02-14 12:35:00,49.8,19.6,30.10,North,355,4.0,4.0,30,0.00,,,0.00,Wunderground v.1.15,2013-02-14 19:35:00,
2013-02-14 12:45:00,51.1,20.7,30.10,NNW,336,6.0,12.0,30,0.00,,,0.00,Wunderground v.1.15,2013-02-14 19:45:00,
2013-02-14 12:50:00,51.5,20.2,30.10,NW,313,6.0,11.0,29,0.00,,,0.00,Wunderground v.1.15,2013-02-14 19:50:00,
2013-02-14 12:55:00,51.4,20.2,30.09,NW,325,7.0,11.0,29,0.00,,,0.00,Wunderground v.1.15,2013-02-14 19:55:00,
2013-02-14 13:00:00,51.2,19.2,30.09,WNW,303,7.0,7.0,28,0.00,,,0.00,Wunderground v.1.15,2013-02-14 20:00:00,
2013-02-14 13:10:00,52.3,18.4,30.09,WNW,302,5.0,9.0,26,0.00,,,0.00,Wunderground v.1.15,2013-02-14 20:10:00,
2013-02-14 13:20:00,52.2,17.4,30.08,NNW,333,7.0,8.0,25,0.00,,,0.00,Wunderground v.1.15,2013-02-14 20:20:00,
2013-02-14 13:25:00,52.7,16.9,30.08,North,5,8.0,8.0,24,0.00,,,0.00,Wunderground v.1.15,2013-02-14 20:25:00,
2013-02-14 13:30:00,52.4,16.6,30.08,NW,314,8.0,8.0,24,0.00,,,0.00,Wunderground v.1.15,2013-02-14 20:30:00,
2013-02-14 13:35:00,52.9,17.0,30.08,WNW,296,7.0,11.0,24,0.00,,,0.00,Wunderground v.1.15,2013-02-14 20:35:00,
2013-02-14 13:40:00,53.1,16.2,30.07,NNW,336,8.0,11.0,23,0.00,,,0.00,Wunderground v.1.15,2013-02-14 20:40:00,
2013-02-14 13:45:00,52.6,15.8,30.07,NW,319,10.0,11.0,23,0.00,,,0.00,Wunderground v.1.15,2013-02-14 20:45:00,
2013-02-14 13:55:00,53.0,16.1,30.07,NNW,348,11.0,15.0,23,0.00,,,0.00,Wunderground v.1.15,2013-02-14 20:55:00,
2013-02-14 14:00:00,52.9,16.1,30.08,WNW,297,10.0,10.0,23,0.00,,,0.00,Wunderground v.1.15,2013-02-14 21:00:00,
2013-02-14 14:10:00,52.7,15.9,30.08,North,350,9.0,10.0,23,0.00,,,0.00,Wunderground v.1.15,2013-02-14 21:10:00,
2013-02-14 14:15:00,52.9,16.1,30.08,NNW,338,10.0,10.0,23,0.00,,,0.00,Wunderground v.1.15,2013-02-14 21:15:00,
2013-02-14 14:20:00,52.7,16.9,30.08,NNW,339,10.0,10.0,24,0.00,,,0.00,Wunderground v.1.15,2013-02-14 21:20:00,
2013-02-14 14:30:00,52.4,17.6,30.08,NW,315,8.0,8.0,25,0.00,,,0.00,Wunderground v.1.15,2013-02-14 21:30:00,
2013-02-14 14:35:00,52.5,17.6,30.08,NNW,340,8.0,8.0,25,0.00,,,0.00,Wunderground v.1.15,2013-02-14 21:35:00,
2013-02-14 14:40:00,53.3,18.3,30.07,NW,319,6.0,6.0,25,0.00,,,0.00,Wunderground v.1.15,2013-02-14 21:40:00,
2013-02-14 14:45:00,53.5,17.5,30.08,NNW,348,7.0,13.0,24,0.00,,,0.00,Wunderground v.1.15,2013-02-14 21:45:00,
2013-02-14 14:54:00,52.9,18.0,30.07,NW,306,8.0,9.0,25,0.00,,,0.00,Wunderground v.1.15,2013-02-14 21:54:00,
2013-02-14 15:05:00,52.3,17.5,30.08,NW,315,8.0,10.0,25,0.00,,,0.00,Wunderground v.1.15,2013-02-14 22:05:00,
2013-02-14 15:15:00,52.1,18.2,30.08,NNW,346,7.0,8.0,26,0.00,,,0.00,Wunderground v.1.15,2013-02-14 22:15:00,
2013-02-14 15:20:00,52.2,17.4,30.08,NW,326,7.0,7.0,25,0.00,,,0.00,Wunderground v.1.15,2013-02-14 22:20:00,
2013-02-14 15:25:00,52.2,17.4,30.08,NW,306,6.0,11.0,25,0.00,,,0.00,Wunderground v.1.15,2013-02-14 22:25:00,
2013-02-14 15:35:00,52.0,18.1,30.09,NNW,342,9.0,13.0,26,0.00,,,0.00,Wunderground v.1.15,2013-02-14 22:35:00,
2013-02-14 15:40:00,51.9,18.0,30.09,NW,313,9.0,12.0,26,0.00,,,0.00,Wunderground v.1.15,2013-02-14 22:40:00,
2013-02-14 15:45:00,52.4,17.6,30.09,NW,317,7.0,12.0,25,0.00,,,0.00,Wunderground v.1.15,2013-02-14 22:45:00,
2013-02-14 15:54:00,52.3,17.5,30.10,North,5,6.0,9.0,25,0.00,,,0.00,Wunderground v.1.15,2013-02-14 22:54:00,
2013-02-14 16:00:00,51.9,17.1,30.09,NNW,348,6.0,6.0,25,0.00,,,0.00,Wunderground v.1.15,2013-02-14 23:00:00,
2013-02-14 16:05:00,51.9,18.0,30.10,NW,313,7.0,12.0,26,0.00,,,0.00,Wunderground v.1.15,2013-02-14 23:05:00,
2013-02-14 16:15:00,51.6,16.9,30.09,North,355,8.0,8.0,25,0.00,,,0.00,Wunderground v.1.15,2013-02-14 23:15:00,
2013-02-14 16:20:00,51.4,17.6,30.09,NNW,339,8.0,8.0,26,0.00,,,0.00,Wunderground v.1.15,2013-02-14 23:20:00,
2013-02-14 16:25:00,51.2,17.4,30.10,North,355,8.0,8.0,26,0.00,,,0.00,Wunderground v.1.15,2013-02-14 23:25:00,
2013-02-14 16:30:00,50.9,18.1,30.10,NW,323,8.0,9.0,27,0.00,,,0.00,Wunderground v.1.15,2013-02-14 23:30:00,
2013-02-14 16:35:00,50.7,17.9,30.10,NW,325,8.0,13.0,27,0.00,,,0.00,Wunderground v.1.15,2013-02-14 23:35:00,
2013-02-14 16:45:00,50.2,17.5,30.09,NNW,338,9.0,9.0,27,0.00,,,0.00,Wunderground v.1.15,2013-02-14 23:45:00,
2013-02-14 16:54:00,49.6,17.8,30.08,NNW,340,9.0,17.0,28,0.00,,,0.00,Wunderground v.1.15,2013-02-14 23:54:00,
2013-02-14 17:00:00,49.4,17.6,30.08,NNW,338,9.0,12.0,28,0.00,,,0.00,Wunderground v.1.15,2013-02-15 00:00:00,
2013-02-14 17:05:00,49.2,18.3,30.08,NW,306,9.0,12.0,29,0.00,,,0.00,Wunderground v.1.15,2013-02-15 00:05:00,
2013-02-14 17:15:00,48.9,18.0,30.08,NW,319,8.0,19.0,29,0.00,,,0.00,Wunderground v.1.15,2013-02-15 00:15:00,
2013-02-14 17:20:00,48.8,18.7,30.09,NNW,341,7.0,7.0,30,0.00,,,0.00,Wunderground v.1.15,2013-02-15 00:20:00,
2013-02-14 17:25:00,48.5,18.4,30.09,WNW,300,7.0,12.0,30,0.00,,,0.00,Wunderground v.1.15,2013-02-15 00:25:00,
2013-02-14 17:30:00,48.3,18.3,30.09,North,355,8.0,8.0,30,0.00,,,0.00,Wunderground v.1.15,2013-02-15 00:30:00,
2013-02-14 17:35:00,48.0,18.0,30.09,NW,323,9.0,9.0,30,0.00,,,0.00,Wunderground v.1.15,2013-02-15 00:35:00,
2013-02-14 17:44:00,47.5,17.6,30.09,NNW,335,7.0,8.0,30,0.00,,,0.00,Wunderground v.1.15,2013-02-15 00:44:00,
2013-02-14 17:54:00,47.0,17.9,30.09,NW,321,6.0,12.0,31,0.00,,,0.00,Wunderground v.1.15,2013-02-15 00:54:00,
2013-02-14 18:00:00,46.8,18.5,30.09,WNW,299,6.0,8.0,32,0.00,,,0.00,Wunderground v.1.15,2013-02-15 01:00:00,
2013-02-14 18:05:00,46.6,18.3,30.09,NW,324,7.0,8.0,32,0.00,,,0.00,Wunderground v.1.15,2013-02-15 01:05:00,
2013-02-14 18:15:00,46.1,18.6,30.09,NW,309,6.0,8.0,33,0.00,,,0.00,Wunderground v.1.15,2013-02-15 01:15:00,
2013-02-14 18:25:00,45.7,18.2,30.10,NW,306,5.0,6.0,33,0.00,,,0.00,Wunderground v.1.15,2013-02-15 01:25:00,
2013-02-14 18:30:00,45.6,18.1,30.10,NW,322,4.0,4.0,33,0.00,,,0.00,Wunderground v.1.15,2013-02-15 01:30:00,
2013-02-14 18:35:00,45.4,18.6,30.11,WNW,295,4.0,5.0,34,0.00,,,0.00,Wunderground v.1.15,2013-02-15 01:35:00,
2013-02-14 18:44:00,44.9,18.2,30.11,NNE,15,4.0,5.0,34,0.00,,,0.00,Wunderground v.1.15,2013-02-15 01:44:00,
2013-02-14 18:50:00,44.6,18.6,30.11,NW,309,2.0,2.0,35,0.00,,,0.00,Wunderground v.1.15,2013-02-15 01:50:00,
2013-02-14 19:00:00,44.2,18.9,30.12,WNW,295,1.0,1.0,36,0.00,,,0.00,Wunderground v.1.15,2013-02-15 02:00:00,
2013-02-14 19:05:00,43.4,18.8,30.13,WNW,295,0.0,1.0,37,0.00,,,0.00,Wunderground v.1.15,2013-02-15 02:05:00,
2013-02-14 19:15:00,42.4,18.6,30.13,WNW,295,0.0,0.0,38,0.00,,,0.00,Wunderground v.1.15,2013-02-15 02:15:00,
2013-02-14 19:20:00,41.5,18.4,30.14,WNW,295,0.0,0.0,39,0.00,,,0.00,Wunderground v.1.15,2013-02-15 02:20:00,
2013-02-14 19:25:00,40.9,19.0,30.14,WNW,296,0.0,0.0,41,0.00,,,0.00,Wunderground v.1.15,2013-02-15 02:25:00,
2013-02-14 19:35:00,39.9,18.6,30.14,WNW,296,0.0,0.0,42,0.00,,,0.00,Wunderground v.1.15,2013-02-15 02:35:00,
2013-02-14 19:44:00,39.2,18.5,30.15,WNW,296,0.0,0.0,43,0.00,,,0.00,Wunderground v.1.15,2013-02-15 02:44:00,
2013-02-14 19:49:00,38.8,18.7,30.15,WNW,296,0.0,0.0,44,0.00,,,0.00,Wunderground v.1.15,2013-02-15 02:49:00,
2013-02-14 19:55:00,38.3,18.3,30.15,WNW,296,0.0,0.0,44,0.00,,,0.00,Wunderground v.1.15,2013-02-15 02:55:00,
2013-02-14 20:00:00,37.8,18.3,30.16,WNW,296,0.0,0.0,45,0.00,,,0.00,Wunderground v.1.15,2013-02-15 03:00:00,
2013-02-14 20:05:00,37.9,18.9,30.16,WNW,296,0.0,0.0,46,0.00,,,0.00,Wunderground v.1.15,2013-02-15 03:05:00,
2013-02-14 20:15:00,38.8,19.2,30.16,WNW,296,0.0,0.0,45,0.00,,,0.00,Wunderground v.1.15,2013-02-15 03:15:00,
2013-02-14 20:20:00,38.4,18.9,30.16,WNW,296,0.0,0.0,45,0.00,,,0.00,Wunderground v.1.15,2013-02-15 03:20:00,
2013-02-14 20:25:00,37.7,18.8,30.16,WNW,296,0.0,0.0,46,0.00,,,0.00,Wunderground v.1.15,2013-02-15 03:25:00,
2013-02-14 20:30:00,36.9,18.5,30.17,WNW,296,0.0,0.0,47,0.00,,,0.00,Wunderground v.1.15,2013-02-15 03:30:00,
2013-02-14 20:40:00,36.5,19.1,30.17,WNW,296,0.0,0.0,49,0.00,,,0.00,Wunderground v.1.15,2013-02-15 03:40:00,
2013-02-14 20:49:00,37.3,19.4,30.17,NNE,24,0.0,4.0,48,0.00,,,0.00,Wunderground v.1.15,2013-02-15 03:49:00,
2013-02-14 20:55:00,38.6,19.6,30.17,NNE,24,0.0,4.0,46,0.00,,,0.00,Wunderground v.1.15,2013-02-15 03:55:00,
2013-02-14 21:00:00,39.2,19.6,30.18,NNE,24,0.0,0.0,45,0.00,,,0.00,Wunderground v.1.15,2013-02-15 04:00:00,
2013-02-14 21:05:00,39.1,19.0,30.18,NNE,24,0.0,0.0,44,0.00,,,0.00,Wunderground v.1.15,2013-02-15 04:05:00,
2013-02-14 21:15:00,39.1,19.5,30.19,ESE,114,1.0,2.0,45,0.00,,,0.00,Wunderground v.1.15,2013-02-15 04:15:00,
2013-02-14 21:20:00,38.9,18.8,30.19,ESE,114,1.0,1.0,44,0.00,,,0.00,Wunderground v.1.15,2013-02-15 04:20:00,
2013-02-14 21:25:00,38.4,18.4,30.20,ESE,114,0.0,1.0,44,0.00,,,0.00,Wunderground v.1.15,2013-02-15 04:25:00,
2013-02-14 21:30:00,37.8,18.3,30.20,ESE,114,0.0,0.0,45,0.00,,,0.00,Wunderground v.1.15,2013-02-15 04:30:00,
2013-02-14 21:39:00,37.0,19.1,30.21,ESE,114,0.0,0.0,48,0.00,,,0.00,Wunderground v.1.15,2013-02-15 04:39:00,
2013-02-14 21:44:00,37.1,18.7,30.21,ESE,114,0.0,0.0,47,0.00,,,0.00,Wunderground v.1.15,2013-02-15 04:44:00,
2013-02-14 21:50:00,36.9,18.5,30.22,ESE,114,0.0,0.0,47,0.00,,,0.00,Wunderground v.1.15,2013-02-15 04:50:00,
2013-02-14 21:55:00,37.0,19.1,30.22,NNE,32,0.0,0.0,48,0.00,,,0.00,Wunderground v.1.15,2013-02-15 04:55:00,
2013-02-14 22:00:00,38.1,19.1,30.21,NNE,15,0.0,4.0,46,0.00,,,0.00,Wunderground v.1.15,2013-02-15 05:00:00,
2013-02-14 22:05:00,38.8,18.7,30.22,NNE,15,1.0,4.0,44,0.00,,,0.00,Wunderground v.1.15,2013-02-15 05:05:00,
2013-02-14 22:14:00,37.9,18.9,30.22,NNE,31,0.0,1.0,46,0.00,,,0.00,Wunderground v.1.15,2013-02-15 05:14:00,
2013-02-14 22:20:00,37.2,18.8,30.23,NNE,31,0.0,0.0,47,0.00,,,0.00,Wunderground v.1.15,2013-02-15 05:20:00,
2013-02-14 22:29:00,36.8,18.9,30.22,NNE,31,0.0,0.0,48,0.00,,,0.00,Wunderground v.1.15,2013-02-15 05:29:00,
2013-02-14 22:35:00,36.7,18.3,30.22,NNE,31,0.0,0.0,47,0.00,,,0.00,Wunderground v.1.15,2013-02-15 05:35:00,
2013-02-14 22:40:00,36.2,18.4,30.23,NNE,31,0.0,0.0,48,0.00,,,0.00,Wunderground v.1.15,2013-02-15 05:40:00,
2013-02-14 22:45:00,36.0,18.7,30.23,NNE,31,0.0,0.0,49,0.00,,,0.00,Wunderground v.1.15,2013-02-15 05:45:00,
2013-02-14 22:50:00,35.9,19.0,30.24,NNE,31,0.0,0.0,50,0.00,,,0.00,Wunderground v.1.15,2013-02-15 05:50:00,
2013-02-14 23:00:00,36.6,19.2,30.24,ESE,121,0.0,0.0,49,0.00,,,0.00,Wunderground v.1.15,2013-02-15 06:00:00,
2013-02-14 23:05:00,36.7,19.3,30.24,East,92,0.0,0.0,49,0.00,,,0.00,Wunderground v.1.15,2013-02-15 06:05:00,
2013-02-14 23:14:00,37.0,19.1,30.24,East,92,0.0,1.0,48,0.00,,,0.00,Wunderground v.1.15,2013-02-15 06:14:00,
2013-02-14 23:20:00,36.6,18.7,30.24,East,92,0.0,0.0,48,0.00,,,0.00,Wunderground v.1.15,2013-02-15 06:20:00,
2013-02-14 23:25:00,35.7,18.4,30.24,East,92,0.0,0.0,49,0.00,,,0.00,Wunderground v.1.15,2013-02-15 06:25:00,
2013-02-14 23:30:00,34.7,17.9,30.24,East,92,0.0,0.0,50,0.00,,,0.00,Wunderground v.1.15,2013-02-15 06:30:00,
2013-02-14 23:35:00,34.0,17.7,30.24,East,92,0.0,0.0,51,0.00,,,0.00,Wunderground v.1.15,2013-02-15 06:35:00,
2013-02-14 23:40:00,33.9,18.1,30.23,East,92,0.0,0.0,52,0.00,,,0.00,Wunderground v.1.15,2013-02-15 06:40:00,
2013-02-14 23:45:00,33.4,17.6,30.24,East,92,0.0,0.0,52,0.00,,,0.00,Wunderground v.1.15,2013-02-15 06:45:00,
2013-02-14 23:50:00,32.7,17.4,30.24,East,92,0.0,0.0,53,0.00,,,0.00,Wunderground v.1.15,2013-02-15 06:50:00,
2013-02-14 23:55:00,31.9,17.1,30.24,East,92,0.0,0.0,54,0.00,,,0.00,Wunderground v.1.15,2013-02-15 06:55:00,